FW7595 Weather Reports


Display with metric or nautical units.
time (UTC)temp
F
wind
direction
speed
MPH
gust
MPH
rain 1hr
in
rain 24hr
in
rain mn
in
humidity
%
barometer
mb
20260503203046 67 247 1.0 4.0 0.00 0.00 0.00 65 1011.6
20260503201546 67 267 1.0 3.0 0.00 0.00 0.00 66 1011.7
20260503200047 67 277 2.0 7.0 0.00 0.00 0.00 64 1011.8
20260503194549 68 281 1.0 5.0 0.00 0.00 0.00 63 1012.0
20260503193044 68 281 2.0 3.0 0.00 0.00 0.00 63 1012.3
20260503191539 65 279 1.0 3.0 0.00 0.00 0.00 70 1012.3
20260503190043 63 184 1.0 7.0 0.00 0.00 0.00 73 1012.5
20260503184529 61 290 1.0 4.0 0.00 0.00 0.00 75 1012.6
20260503183028 60 265 0.0 3.0 0.00 0.00 0.00 78 1012.7
20260503181528 60 292 0.0 4.0 0.00 0.00 0.00 79 1012.8
20260503180027 61 292 0.0 2.0 0.00 0.00 0.00 79 1012.7
20260503174528 61 259 1.0 3.0 0.00 0.00 0.00 77 1012.7
20260503173025 61 259 1.0 4.0 0.00 0.00 0.00 76 1012.4
20260503171523 61 131 0.0 3.0 0.00 0.00 0.00 77 1012.4
20260503081545 58 265 1.0 4.0 0.00 0.00 0.00 87 1011.3
20260503071540 58 186 1.0 3.0 0.00 0.00 0.00 86 1011.2
20260503054532 59 272 0.0 4.0 0.00 0.00 0.00 83 1010.7
20260503053026 59 278 1.0 5.0 0.00 0.00 0.00 82 1010.8
20260503051524 59 290 2.0 5.0 0.00 0.00 0.00 82 1010.8
20260503050025 59 275 3.0 6.0 0.00 0.00 0.00 82 1010.8
20260503044527 60 288 1.0 5.0 0.00 0.00 0.00 81 1010.7
20260503043024 60 276 2.0 6.0 0.00 0.00 0.00 80 1010.7
20260503041524 60 277 2.0 7.0 0.00 0.00 0.00 79 1010.3
20260503040024 61 275 1.0 4.0 0.00 0.00 0.00 78 1010.0
20260503034523 61 269 2.0 7.0 0.00 0.00 0.00 77 1009.7
20260503033027 62 272 1.0 6.0 0.00 0.00 0.00 75 1009.4
20260503031522 62 272 1.0 5.0 0.00 0.00 0.00 75 1009.3
20260503030021 63 273 2.0 8.0 0.00 0.00 0.00 74 1009.0
20260503024622 64 277 1.0 7.0 0.00 0.00 0.00 72 1008.8
20260503023021 66 265 1.0 4.0 0.00 0.00 0.00 68 1008.6
20260503021519 68 253 0.0 5.0 0.00 0.00 0.00 65 1008.3
20260503020019 70 227 1.0 4.0 0.00 0.00 0.00 62 1008.2
20260503014518 71 294 1.0 4.0 0.00 0.00 0.00 61 1008.0
20260503013021 73 269 2.0 6.0 0.00 0.00 0.00 58 1008.0
20260503011518 75 273 1.0 4.0 0.00 0.00 0.00 55 1008.0
20260503010017 75 282 1.0 5.0 0.00 0.00 0.00 55 1008.0
20260503004515 75 281 1.0 7.0 0.00 0.00 0.00 56 1008.1
20260503003035 75 291 1.0 8.0 0.00 0.00 0.00 57 1008.3
20260503001522 75 271 4.0 8.0 0.00 0.00 0.00 57 1008.3
20260503000016 75 278 2.0 8.0 0.00 0.00 0.00 57 1008.3
20260502234515 75 292 1.0 10.0 0.00 0.00 0.00 57 1008.2
20260502233020 75 286 3.0 10.0 0.00 0.00 0.00 58 1008.2
20260502231511 75 277 3.0 9.0 0.00 0.00 0.00 56 1008.3
20260502230010 75 287 2.0 10.0 0.00 0.00 0.00 56 1008.6
20260502224506 75 256 4.0 12.0 0.00 0.00 0.00 57 1008.8
20260502223013 76 290 2.0 12.0 0.00 0.00 0.00 56 1009.2
20260502221502 75 267 3.0 11.0 0.00 0.00 0.00 57 1009.2
20260502220058 74 305 5.0 12.0 0.00 0.00 0.00 57 1009.5
20260502214603 74 270 2.0 11.0 0.00 0.00 0.00 60 1009.7
20260502213053 74 282 2.0 13.0 0.00 0.00 0.00 61 1010.0
20260502211553 73 264 3.0 12.0 0.00 0.00 0.00 61 1010.2
20260502210104 74 246 3.0 10.0 0.00 0.00 0.00 60 1010.2
20260502204549 74 279 3.0 8.0 0.00 0.00 0.00 61 1010.4